[[{"header":{"parameterUnit":"m.s-1","parameterCategory":1,"la1":30.2991,"la2":30.254,"lo1":-89.0895,"lo2":-89.0444,"dy":0.0017,"dx":0.0017,"nx":28,"ny":28,"refTime":"2024-10-01T03:00:00:Z","depth":0,"parameterNumber":2,"parameterNumberName":"U-component_of_WINDS"},"data":[0,0,0,0,0,0,0,0,0,0,0,0,0,0,0,0,0,0,0,0,0,0,0,0,0,0,0,0,0,0,0,0,0,0,0,0,0,0,0,0,0,0,0,0,0,0,0,0,0,0,0,0,0,0,0,0,0,0,1.172,1.1721,0,1.1831,1.1832,1.1833,1.1829,1.1827,1.1826,1.1824,1.1939,1.1943,1.1948,0,0,0,0,0,0,0,0,0,0,0,0,0,1.1506,1.151,1.172,1.1722,1.1723,1.1831,1.1832,1.1834,1.1829,1.1827,1.1825,1.1824,1.1937,1.1943,1.1948,0,0,0,0,0,0,0,0,0,0,0,0,0,1.1606,1.1511,1.172,1.1734,1.1736,1.183,1.1832,1.1834,1.183,1.1827,1.1825,1.1823,1.1936,1.1942,1.1949,1.2037,0,0,1.1969,1.1972,0,0,0,0,0,0,0,0,1.16,1.1614,1.173,1.1733,1.1736,1.1814,1.1799,1.1902,1.183,1.1794,1.1824,1.1822,1.1899,1.1909,1.1935,1.2042,1.2047,1.197,1.1974,1.1977,1.1979,0,0,0,0,0,0,0,1.1594,1.1609,1.1764,1.1732,1.1735,1.1735,1.1746,1.1818,1.1858,1.1797,1.1797,1.181,1.19,1.1928,1.1937,1.2049,1.197,1.1976,1.198,1.1982,1.2233,1.2236,0,0,0,0,0,0,1.1583,1.1603,1.176,1.1767,1.1661,1.174,1.1753,1.1791,1.1858,1.1865,1.1812,1.181,1.1918,1.1929,1.1941,1.2047,1.1977,1.1983,1.1987,1.2231,1.2234,1.2237,0,0,0,0,0,0,1.1579,1.1598,1.1756,1.1685,1.1706,1.1747,1.1789,1.1794,1.1822,1.1869,1.1876,1.1833,1.1916,1.1932,1.2013,1.2051,1.1986,1.1992,1.2227,1.2232,1.2235,1.2261,0,0,0,0,0,0,1.1573,1.1596,1.163,1.1686,1.1709,1.1825,1.1791,1.1798,1.1834,1.1832,1.189,1.1898,1.1916,1.2003,1.2019,1.2059,1.1998,1.2224,1.2229,1.2234,1.2257,1.2266,1.2273,0,0,0,0,0,1.1565,1.1633,1.1631,1.165,1.1752,1.1828,1.1841,1.1859,1.1837,1.1871,1.1901,1.1896,1.2045,1.2011,1.203,1.2072,1.2222,1.2228,1.2234,1.2253,1.2264,1.2273,0,0,0,0,0,0,1.158,1.1641,1.1639,1.1728,1.1772,1.1827,1.187,1.187,1.1923,1.1918,1.194,1.1953,1.2034,1.2062,1.2023,1.2161,1.213,1.214,1.2139,1.2149,1.2157,1.2148,1.2003,0,0,0,0,0,1.1594,1.165,1.17,1.1773,1.1795,1.1829,1.1863,1.1873,1.1921,1.194,1.1975,1.2022,1.2079,1.2116,1.2171,1.2262,1.2274,1.23,1.2308,1.2315,1.2322,1.2371,1.2383,1.2256,1.2256,1.2256,0,0,1.1622,1.1662,1.1696,1.1777,1.1813,1.187,1.1845,1.1907,1.195,1.1949,1.2027,1.2055,1.2109,1.2194,1.2234,1.222,1.236,1.2322,1.2327,1.2331,1.2378,1.239,1.2401,1.226,1.2259,1.2259,0,0,1.1703,1.174,1.1803,1.184,1.1895,1.1917,1.1932,1.1987,1.2005,1.2084,1.2084,1.2136,1.2234,1.2272,1.2304,1.2399,1.2396,1.2417,1.2457,1.2504,1.2514,1.2523,1.2555,1.2567,1.2425,1.2425,1.2425,0,1.1731,1.1817,1.1837,1.1898,1.1933,1.1936,1.2,1.2035,1.2105,1.213,1.2113,1.2236,1.2272,1.2366,1.2389,1.2416,1.2433,1.2409,1.2511,1.252,1.2529,1.256,1.2572,1.2427,1.2427,1.2426,1.2426,0,1.1849,1.1909,1.1954,1.2021,1.2061,1.2124,1.2153,1.2192,1.2199,1.2223,1.2303,1.2347,1.241,1.2434,1.2442,1.2529,1.2518,1.2506,1.2476,1.2543,1.2572,1.2584,1.243,1.2429,1.2428,1.2428,0,0,1.1941,1.2017,1.2033,1.2063,1.2124,1.2171,1.2234,1.2296,1.2328,1.2377,1.243,1.2513,1.2502,1.2539,1.2551,1.2593,1.2664,1.2576,1.2578,1.2589,1.276,1.2767,1.278,1.2663,1.2665,1.2667,1.2755,0,1.2026,1.2137,1.2157,1.2254,1.2309,1.2312,1.2368,1.2411,1.2435,1.2486,1.2513,1.257,1.2553,1.2575,1.2616,1.2646,1.2698,1.264,1.2712,1.2714,1.2696,1.2796,1.2804,1.2884,1.2767,1.2769,1.277,0,1.214,1.2191,1.2293,1.2346,1.237,1.2419,1.2477,1.2525,1.2574,1.2589,1.263,1.2637,1.2703,1.2671,1.2762,1.2722,1.2753,1.2772,1.2776,1.2781,1.2744,1.2803,1.2911,1.2922,1.2789,1.2788,1.2786,0,1.2194,1.2288,1.2362,1.2388,1.2451,1.2485,1.2514,1.2561,1.2596,1.2647,1.2671,1.2729,1.276,1.2806,1.2829,1.2804,1.2917,1.2888,1.293,1.293,1.2952,1.295,1.3065,1.2976,1.2976,1.2975,1.2975,0,1.2286,1.2348,1.2386,1.2431,1.2501,1.2523,1.2592,1.262,1.2662,1.2712,1.272,1.2767,1.2795,1.2847,1.2866,1.2937,1.2952,1.2965,1.2969,1.2963,1.2961,1.2982,1.2976,1.2979,1.2978,1.2977,1.2977,0,1.2357,1.2385,1.2465,1.2519,1.2534,1.2583,1.2629,1.2673,1.2698,1.2761,1.2777,1.2816,1.2877,1.2905,1.2981,1.2993,1.3074,1.3075,1.3056,1.3057,1.3098,1.3093,1.3228,1.3246,1.3147,1.3148,1.3149,0,1.2412,1.246,1.2519,1.2553,1.2582,1.2637,1.2673,1.2698,1.2735,1.2795,1.2831,1.2892,1.2942,1.3039,1.3074,1.3132,1.3133,1.3176,1.3141,1.3134,1.3131,1.3127,1.3131,1.3182,1.3183,1.3184,1.3184,0,1.2507,1.2519,1.2571,1.2628,1.2671,1.2717,1.2762,1.2789,1.2821,1.2863,1.2925,1.2963,1.304,1.31,1.316,1.319,1.3192,1.3195,1.3208,1.3201,1.3188,1.3193,1.3071,1.3191,1.3191,1.319,1.319,1.319,1.2571,1.2613,1.2661,1.2718,1.2755,1.2797,1.284,1.287,1.2922,1.2986,1.2998,1.3063,1.3111,1.3192,1.3224,1.3275,1.3265,1.3284,1.3288,1.3292,1.3293,1.3181,1.3287,1.3287,1.3286,1.3286,1.3286,0,1.2664,1.2695,1.2748,1.2811,1.2856,1.2855,1.2905,1.2942,1.3,1.3044,1.3093,1.3164,1.3223,1.3262,1.3321,1.3355,1.3358,1.337,1.3366,1.3373,1.33,1.3282,1.3367,1.3367,1.3367,1.3367,1.3367,1.3366,1.2718,1.2789,1.2806,1.2895,1.2926,1.299,1.3018,1.3057,1.3093,1.3171,1.322,1.3245,1.3288,1.335,1.3404,1.3414,1.3435,1.3447,1.3456,1.3387,1.3378,1.337,1.3353,1.3452,1.3452,1.3525,1.3525,1.3526]},{"header":{"parameterUnit":"m.s-1","parameterCategory":1,"la1":30.2991,"la2":30.254,"lo1":-89.0895,"lo2":-89.0444,"dy":0.0017,"dx":0.0017,"nx":28,"ny":28,"refTime":"2024-10-01T03:00:00:Z","depth":0,"parameterNumber":3,"parameterNumberName":"V-component_of_WINDS"},"data":[0,0,0,0,0,0,0,0,0,0,0,0,0,0,0,0,0,0,0,0,0,0,0,0,0,0,0,0,0,0,0,0,0,0,0,0,0,0,0,0,0,0,0,0,0,0,0,0,0,0,0,0,0,0,0,0,0,0,0.1151,0.1151,0,0.114,0.114,0.114,0.1103,0.1102,0.1102,0.1101,0.1091,0.1092,0.1093,0,0,0,0,0,0,0,0,0,0,0,0,0,0.114,0.1141,0.1151,0.1151,0.1151,0.114,0.114,0.114,0.1103,0.1102,0.1101,0.11,0.1091,0.1092,0.1093,0,0,0,0,0,0,0,0,0,0,0,0,0,0.1139,0.1141,0.1151,0.1131,0.1129,0.114,0.114,0.114,0.1104,0.1102,0.1101,0.11,0.1091,0.1092,0.1093,0.1123,0,0,0.1095,0.1095,0,0,0,0,0,0,0,0,0.1139,0.1139,0.1134,0.1133,0.1131,0.1122,0.1133,0.1134,0.1104,0.1114,0.1101,0.1099,0.1103,0.1102,0.1103,0.1122,0.1122,0.1095,0.1096,0.1096,0.1096,0,0,0,0,0,0,0,0.1139,0.114,0.1147,0.1134,0.1132,0.1123,0.1121,0.1133,0.1115,0.1113,0.111,0.1109,0.1101,0.1103,0.1103,0.1122,0.1095,0.1096,0.1096,0.1097,0.1162,0.1163,0,0,0,0,0,0,0.1142,0.114,0.1147,0.1147,0.1132,0.1124,0.1122,0.1126,0.1115,0.1112,0.111,0.1107,0.1102,0.1102,0.1102,0.1135,0.1096,0.1097,0.1097,0.1161,0.1162,0.1164,0,0,0,0,0,0,0.1142,0.1143,0.1148,0.1143,0.1142,0.1126,0.113,0.1126,0.1127,0.1113,0.111,0.1114,0.1101,0.1101,0.1117,0.1134,0.1097,0.1098,0.1159,0.1161,0.1163,0.1202,0,0,0,0,0,0,0.1142,0.1143,0.1155,0.1143,0.1143,0.1163,0.1131,0.1127,0.1129,0.1125,0.1116,0.1114,0.11,0.1116,0.1118,0.1135,0.1098,0.1158,0.116,0.1162,0.1199,0.1205,0.121,0,0,0,0,0,0.1142,0.1167,0.1155,0.1156,0.1157,0.1164,0.1164,0.1147,0.113,0.1141,0.1132,0.1114,0.1132,0.1118,0.112,0.1137,0.1156,0.1159,0.1162,0.1196,0.1204,0.121,0,0,0,0,0,0,0.1182,0.1165,0.1152,0.1174,0.1171,0.1158,0.1171,0.1155,0.1157,0.1154,0.1133,0.1131,0.115,0.1145,0.113,0.1164,0.1141,0.1145,0.1167,0.1173,0.1179,0.1179,0.1099,0,0,0,0,0,0.1193,0.12,0.1185,0.1206,0.1205,0.1189,0.1191,0.1178,0.1174,0.1172,0.1164,0.1161,0.1165,0.1169,0.1173,0.1198,0.1195,0.121,0.1216,0.122,0.1223,0.1234,0.1241,0.1173,0.1173,0.1173,0,0,0.1217,0.1209,0.1215,0.1214,0.121,0.1217,0.1188,0.1198,0.1203,0.1174,0.1188,0.1182,0.1177,0.1197,0.1205,0.1193,0.1241,0.1224,0.1228,0.1228,0.1238,0.1244,0.125,0.1175,0.1175,0.1174,0,0,0.1264,0.1259,0.1275,0.1271,0.1264,0.1252,0.1256,0.1245,0.1239,0.1253,0.1231,0.1237,0.1246,0.1243,0.1242,0.1286,0.1269,0.1287,0.1316,0.1327,0.1332,0.1337,0.1351,0.1356,0.1291,0.1291,0.1291,0,0.1295,0.1305,0.1285,0.1296,0.1296,0.1269,0.1284,0.1282,0.1277,0.1277,0.1264,0.1273,0.1268,0.1286,0.1296,0.1297,0.13,0.1288,0.1333,0.1337,0.1341,0.1354,0.136,0.1293,0.1293,0.1292,0.1292,0,0.1342,0.135,0.1364,0.1358,0.1359,0.1373,0.1355,0.1358,0.1345,0.1335,0.1348,0.134,0.1341,0.1344,0.1332,0.136,0.1353,0.1336,0.1313,0.135,0.1362,0.1367,0.1296,0.1295,0.1295,0.1294,0,0,0.1416,0.1397,0.1403,0.1399,0.1389,0.1394,0.1405,0.1405,0.1408,0.1406,0.1414,0.1421,0.1405,0.1405,0.1391,0.1401,0.1434,0.1383,0.1383,0.1392,0.1462,0.1474,0.1481,0.1422,0.1423,0.1424,0.1462,0,0.1459,0.1477,0.1459,0.148,0.1486,0.146,0.1469,0.1464,0.1454,0.1458,0.1447,0.1452,0.1431,0.143,0.1439,0.1428,0.1448,0.1425,0.143,0.143,0.1431,0.1487,0.15,0.1537,0.1467,0.1468,0.1469,0,0.1513,0.1511,0.1533,0.1519,0.1521,0.153,0.1527,0.1531,0.1523,0.1516,0.1514,0.1497,0.1506,0.1483,0.1496,0.1481,0.1481,0.1476,0.1477,0.1477,0.1451,0.1487,0.1548,0.1554,0.1476,0.1476,0.1475,0,0.1563,0.1566,0.1578,0.1576,0.1561,0.1568,0.1562,0.1553,0.1553,0.1551,0.1551,0.155,0.1549,0.1549,0.1532,0.1517,0.1546,0.1522,0.1539,0.1539,0.1546,0.1546,0.1607,0.1548,0.1548,0.1548,0.1548,0,0.1613,0.1627,0.16,0.1608,0.1623,0.1601,0.1616,0.1608,0.16,0.1605,0.1583,0.1588,0.1566,0.1569,0.1555,0.1567,0.1567,0.156,0.1557,0.1562,0.1563,0.1562,0.1559,0.1549,0.1549,0.1549,0.1548,0,0.1672,0.1654,0.1666,0.165,0.1646,0.1657,0.1643,0.1649,0.1637,0.1645,0.1645,0.1626,0.1629,0.1611,0.1611,0.1602,0.1619,0.1611,0.1621,0.1618,0.1636,0.1634,0.1699,0.1706,0.1643,0.1643,0.1644,0,0.1705,0.1714,0.1698,0.17,0.1695,0.1698,0.1697,0.1676,0.1677,0.1668,0.1675,0.1675,0.1674,0.1678,0.1665,0.1664,0.1655,0.1678,0.1655,0.1659,0.1654,0.1653,0.1654,0.1682,0.1683,0.1684,0.1684,0,0.1765,0.1755,0.1755,0.1751,0.1751,0.1748,0.1743,0.1746,0.1722,0.1724,0.1725,0.1724,0.1722,0.1722,0.1718,0.1711,0.1694,0.1691,0.1695,0.1701,0.1706,0.1702,0.1633,0.169,0.169,0.1689,0.1689,0.1689,0.1811,0.1817,0.1806,0.1807,0.18,0.1796,0.18,0.1788,0.1789,0.1785,0.1772,0.1775,0.1766,0.1758,0.1753,0.1755,0.1744,0.175,0.1751,0.1753,0.1755,0.1706,0.1754,0.1754,0.1754,0.1754,0.1754,0,0.1869,0.186,0.186,0.1853,0.1853,0.1835,0.1828,0.1829,0.1832,0.1825,0.1823,0.1824,0.1823,0.1809,0.1806,0.181,0.1802,0.181,0.1809,0.1808,0.1766,0.1763,0.1817,0.1817,0.1817,0.1817,0.1817,0.1817,0.1899,0.1909,0.1897,0.1903,0.1895,0.1897,0.1894,0.1889,0.1883,0.1884,0.1883,0.1873,0.1863,0.1859,0.1857,0.1852,0.1852,0.1863,0.1856,0.1817,0.1811,0.1805,0.1802,0.1863,0.1863,0.1897,0.1898,0.1898]}]]